This is the latest recevied weather packets stored in our database for station/object IU3IOK-3. If no packets are shown the sender has not sent any weather packets the latest 10 day(s).
| Time | Temp. | Humidity | Pressure | Rain* | Wind** | Luminosity | Snow |
|---|---|---|---|---|---|---|---|
| 1777491702 | 17.22° C | 57% | 1019.3 hPa | - | - | - | - |
| 1777490802 | 17.22° C | 56% | 1019.1 hPa | - | - | - | - |
| 1777489902 | 17.22° C | 56% | 1018.8 hPa | - | - | - | - |
| 1777489002 | 17.22° C | 57% | 1018.5 hPa | - | - | - | - |
| 1777488102 | 17.78° C | 56% | 1018.4 hPa | - | - | - | - |
| 1777487202 | 17.78° C | 55% | 1018 hPa | - | - | - | - |
| 1777486302 | 17.78° C | 51% | 1018.1 hPa | - | - | - | - |
| 1777485402 | 17.78° C | 51% | 1018 hPa | - | - | - | - |
| 1777484502 | 17.78° C | 50% | 1017.6 hPa | - | - | - | - |
| 1777483602 | 18.33° C | 49% | 1017.5 hPa | - | - | - | - |
| 1777482702 | 18.33° C | 48% | 1017.3 hPa | - | - | - | - |
| 1777481802 | 18.89° C | 48% | 1017.3 hPa | - | - | - | - |
| 1777480902 | 18.33° C | 48% | 1017.2 hPa | - | - | - | - |
| 1777480002 | 18.89° C | 47% | 1017.2 hPa | - | - | - | - |
| 1777479102 | 18.89° C | 47% | 1017.1 hPa | - | - | - | - |
| 1777478202 | 18.89° C | 46% | 1017.2 hPa | - | - | - | - |
| 1777477302 | 18.89° C | 46% | 1017.3 hPa | - | - | - | - |
| 1777476402 | 19.44° C | 47% | 1017.2 hPa | - | - | - | - |
| 1777475502 | 19.44° C | 47% | 1017.2 hPa | - | - | - | - |
| 1777474602 | 19.44° C | 48% | 1017.4 hPa | - | - | - | - |
| 1777473702 | 20° C | 47% | 1017.3 hPa | - | - | - | - |
| 1777472802 | 20° C | 47% | 1017.3 hPa | - | - | - | - |
| 1777471902 | 20.56° C | 46% | 1017.3 hPa | - | - | - | - |
| 1777471002 | 20.56° C | 46% | 1017.1 hPa | - | - | - | - |
| 1777470102 | 20.56° C | 46% | 1017.1 hPa | - | - | - | - |
* Rain since midnight (hover to see other rain measurements)
** Current wind speed in m/s (hover to see current wind gust speed)